User: anonymous   Login
Location: Albany
(35.0000°S, 118.0000°E)
Time: 12:51:57
(UTC-04:00)
Language:

ERS-1 Rocket - Orbit

View from above orbital plane
View from above orbital plane
View from above satellite
View from above satellite

Ground track
Ground track

The orbit data is extracted from the following two-line orbital elements,

1 21610U 91050F   15090.08122502  .00000555  00000-0  18873-3 0  9995
2 21610 098.7126 125.5327 0003190 176.2407 236.7372 14.40560970243612
Epoch (UTC): 31 March 2015 01:56:57
Eccentricity: 0.0003190
inclination: 98.7126°
perigee height: 754 km
apogee height: 759 km
right ascension of ascending node: 125.5327°
argument of perigee: 176.2407°
revolutions per day: 14.40560970
mean anomaly at epoch: 236.7372°
orbit number at epoch: 24361

The dashed part of the orbit path shows where the satellite is in the earth's shadow,  

DLR